カタログに戻る

USA 619

運用中軍事LEO
NORAD 100178·PAYLOAD·🇺🇸 United States

打ち上げ Jul 30, 2026 から Cape Canaveral Space Force Station

Loading…

次のパス (今後24時間)

TLE

古いSource: Mike McCants

元期: Sep 6, 2026, 00:49 UTC

1 A0178U 26174A   26249.03462929 0.00000000  00000-0  00000-0 0    07
2 A0178  63.4282 224.1992 0127875 180.8694 179.0177 13.40643320    06

AllMySatでUSA 619をリアルタイム追跡

Download on the App Store